Location: Unspecified
(47.8330°N, 0.0000°E)
Time: 19:17:58
(UTC+00:00)

SO-50 - Visible Passes

Search period start: 21 July 2019 00:00
Search period end: 31 July 2019 00:00
Orbit: 587 x 700 km, 64.6° (Epoch: 20 July)

Date Brightness Start Highest point End Pass type
(mag) Time Alt. Az. Time Alt. Az. Time Alt. Az.
21 Jul ? 02:04:26 23° S 02:06:56 40° ESE 02:11:33 10° NE visible
22 Jul ? 00:51:15 13° ESE 00:52:11 13° ESE 00:54:30 10° E visible
22 Jul ? 02:28:52 24° SSW 02:31:53 83° SE 02:36:52 10° NE visible
23 Jul ? 01:15:39 26° SE 01:16:48 29° ESE 01:21:02 10° ENE visible
23 Jul ? 02:53:16 16° WSW 02:57:04 51° NW 03:01:56 10° NNE visible
24 Jul ? 01:40:00 38° S 01:41:40 60° ESE 01:46:33 10° NE visible
24 Jul ? 03:18:09 10° W 03:22:29 30° NW 03:26:51 10° NNE visible
25 Jul ? 00:26:42 21° ESE 00:26:44 21° ESE 00:30:22 10° ENE visible
25 Jul ? 02:04:18 29° SW 02:06:45 69° NW 02:11:43 10° NE visible
25 Jul ? 03:44:32 10° WNW 03:48:07 19° NNW 03:51:42 10° NNE visible
26 Jul ? 00:50:58 41° SE 00:51:29 43° ESE 00:56:10 10° NE visible
26 Jul ? 02:28:35 16° WSW 02:32:04 37° NW 02:36:41 10° NNE visible
26 Jul ? 23:37:35 14° E 23:37:35 14° E 23:39:23 10° ENE visible
27 Jul ? 01:15:12 51° SW 01:16:28 89° SE 01:21:27 10° NE visible
27 Jul ? 02:53:39 10° W 02:57:36 23° NNW 03:01:33 10° NNE visible
28 Jul ? 00:01:46 31° ESE 00:01:46 31° ESE 00:05:41 10° NE visible
28 Jul ? 01:39:23 28° WSW 01:41:41 48° NW 01:46:30 10° NNE visible
28 Jul ? 03:20:16 10° WNW 03:23:19 16° NNW 03:26:23 10° NNE visible
29 Jul ? 00:25:55 63° SSE 00:26:14 65° ESE 00:31:10 10° NE visible
29 Jul ? 02:03:31 13° W 02:07:07 28° NW 02:11:24 10° NNE visible
29 Jul ? 03:47:07 10° NW 03:49:13 12° NNW 03:51:19 10° NNE visible
29 Jul ? 23:12:24 21° E 23:12:24 21° E 23:15:04 10° ENE visible
30 Jul ? 00:50:01 45° WSW 00:51:20 64° NW 00:56:17 10° NE visible
30 Jul ? 02:29:17 10° WNW 02:32:46 19° NNW 02:36:15 10° NNE visible
30 Jul ? 23:36:27 46° ESE 23:36:27 46° ESE 23:40:48 10° NE visible
